Regional Weather Roundup
Issued by NWS Sioux Falls, SD

Home | Current Version | Previous Version | Text Only | Print | Product List | Glossary On
Versions: 1 2 3 4 5 6 7 8 9 10 11 12 13 14 15 16 17 18 19 20 21 22 23 24 25 26 27 28 29 30 31 32 33 34 35 36 37 38 39 40 41 42 43 44 45 46 47 48 49 50
919
ASUS43 KFSD 121310
RWRFSD

WEATHER ROUNDUP FOR SE SOUTH DAKOTA/SW MINNESOTA/NW IOWA
NATIONAL WEATHER SERVICE SIOUX FALLS SD
700 AM CST FRI FEB 12 2016

NOTE: "FAIR" INDICATES FEW OR NO CLOUDS BELOW 12,000 FEET WITH NO
SIGNIFICANT WEATHER AND OR OBSTRUCTIONS TO VISIBILITY.


SDZ038>040-050-052>070-121400-
SOUTHEAST SOUTH DAKOTA

CITY           SKY/WX    TMP DP  RH WIND       PRES   REMARKS
BROOKINGS      FLURRIES  10   6  84 N10       30.37R WCI  -4
CHAMBERLAIN    CLOUDY    20  16  85 N12       30.42R WCI   8
HURON          CLOUDY    14  10  84 N12       30.45R WCI   0
MADISON        PTSUNNY   10  10 100 N9        30.37R WCI  -2
MITCHELL       CLOUDY    17  12  80 N15       30.43R WCI   2
SIOUX FALLS    CLOUDY    14   7  73 N12       30.38R WCI   0
WINNER         CLOUDY    23  18  81 N13       30.40R WCI  11
YANKTON        CLOUDY    19  12  73 NW10      30.42R WCI   8
$$

MNZ071-072-080-081-089-090-097-098-121400-
SOUTHWEST MINNESOTA

CITY           SKY/WX    TMP DP  RH WIND       PRES   REMARKS
FAIRMONT       CLOUDY    10   3  72 NW16G22   30.31R WCI  -7
JACKSON        CLOUDY    10   5  79 NW15      30.32R WCI  -6
LUVERNE        CLOUDY    16  10  79 N10       30.38R WCI   3
MARSHALL       FLURRIES  10   4  76 N20       30.39R WCI  -9
MONTEVIDEO     CLEAR      7   1  78 N20G25    30.42R WCI -13
PIPESTONE      FLURRIES  12   3  67 N9G20     30.35R WCI   0
REDWOOD FALLS  CLEAR      9   2  73 NW18G26   30.38R WCI -10
TRACY          FLURRIES  11   7  83 N16G22    30.37R WCI  -6
WINDOM         LGT SNOW   9   5  85 NW17      30.33R WCI -10
WORTHINGTON    CLOUDY    10   3  72 N18       30.35R WCI  -8
$$

IAZ001>003-012>014-020>022-031-032-NEZ013-014-SDZ071-121400-
NORTHWEST IOWA

CITY           SKY/WX    TMP DP  RH WIND       PRES   REMARKS
CHEROKEE       CLOUDY    16  13  86 N10       30.36R WCI   4
DENISON        CLOUDY    18  14  86 NW14      30.33R WCI   4
ESTHERVILLE    CLOUDY    11   7  84 N20       30.32R WCI  -7
LE MARS        CLOUDY    19  16  86 N14       30.39R WCI   6
ORANGE CITY    CLOUDY    16  12  86 N13       30.36R WCI   2
SHELDON        CLOUDY    14  10  85 N15G22    30.35R WCI  -1
SIOUX CITY     CLOUDY    21  16  81 NW12      30.38R WCI   9
SPENCER        CLOUDY    13   6  74 N21       30.35R WCI  -5
STORM LAKE     CLOUDY    16  16 100 N14       30.33R WCI   1
$$

ABBREVIATIONS USED IN REMARKS
   TC - TEMPERATURE IN CELSIUS
  WCI - WIND CHILL INDEX
   HX - HEAT INDEX
  VSB - VISIBILITY





USA.gov is the U.S. government's official web portal to all federal, state and local government web resources and services.